Weather in Kolovo

Russia / Republic of Karelia     61°48′06″N   36°47′32″E
temp.,
°C
wind,
m/s
gust,
m/s
humid.,
%
clouds,
%
prec.,
mm/h
press.,
hPa
HPBL,
m
2 march, tue
tue200:00+1wnw5139298 0.6 10001048
03:000wnw5119098 0.7 1000874
06:00−4w3129370 0.0 999447
09:00−2wnw5129085 0.0 1000946
12:00−1nw61186100 0.2 10021243
15:00−2nw5108098 0.6 10051327
18:00−4nw4128994 0.1 1007640
21:00−6nw3129177 0.1 1009461
3 march, wed
wed300:00−8wnw311925 0.0 1009302
03:00−10w28962 0.0 1010154
06:00−9wsw269872 0.0 1007166
09:00−4w499685 0.6 1006684
12:00−2w4893100 0.4 1004724
15:00−2w41091100 0.4 1002810
18:00−2w41094100 1.1 998719
21:00−2w2798100 3.1 996465
4 march, thu
thu400:00−3nw3797100 2.1 995418
03:00−6n3992100 3.8 997391
06:00−12nnw239666 0.0 99854
09:00−13nw159739 0.0 1000146
12:00−8nw239366 0.0 1000384
15:00−6nw249183 0.1 1001573
18:00−10wnw229692 0.0 100121
21:00−13w119879 0.1 100221
5 march, fri
fri500:00−12w129797 0.2 100221
03:00−13wnw229793 0.3 100324
06:00−13nnw259796 0.2 1004140
09:00−15n269481 0.2 1006197
12:00−12nnw249134 0.0 1008504
15:00−10nnw368266 0.1 10101041
18:00−14wnw229226 0.0 101020
21:00−16wsw229725 0.0 101220
6 march, sat
sat600:00−13wsw2497100 0.2 1011108
03:00−14w2298100 0.3 101148
06:00−15wsw229799 0.1 101144
09:00−13wsw2497100 0.3 1011182
12:00−11sw3596100 0.1 1009340
15:00−9ssw3795100 0.1 1006358
18:00−8ssw41091100 0.1 1002719
21:00−7s51294100 0.7 997758